Starlink 32092

operational
NORAD ID: 59700 Int'l Des: 2024-086 Owner: SPXS Country: US Constellation: starlink
LEOCIRCULAR

About Starlink 32092

Description loading...

Live Position

Loading 3D Globe...

Upcoming Passes

Altitude History

Altitude vs Time

uPlot chart will show altitude changes over time

Two-Line Element Set

1 59700U 24086U 25303.71905345 -.00000007 00000-0 92844-5 0 9998
2 59700 42.9991 74.0013 0001243 280.7843 79.2869 15.27573277 84238
Epoch: Oct 30, 2025 • Age: 7 hours

Current Status

Altitude 495.5 km
Velocity 7.62 km/s
Sub-Earth Point -42.98°S, 74.01°W
Launch Date May 8, 2024
Age 1.4 years
Type internet

Technical Details

Classification Payload
Mass 730.00 kg
Dry Mass 700.00 kg
Total Mass 730.00 kg
Length 0.30 m
Diameter 4.10 m
Span 29.00 m
Shape Box + pan
Manufacturer SPXS
Bus Type Starlink V2M
Phase Status In Orbit
Owner/State SPXS/US

Large Constellations

Loading constellations...